Theta_e
348 349 349 348 347 347 349 351 350 350 349 348 348 348 346 347 346 346 347 346 343 336 334 335 335 337 345 342 344 343 343 343 342 342 342 341 341 342 343 344 344 345 345 346 346 346 345 344 343 343 343 343 343 334 329 328 329 331 334 334 338 338
348 348 348 348 348 347 349 349 347 347 346 345 346 347 344 342 346 339 347 341 339 344 335 332 336 345 342 344 344 345 344 344 344 343 344 344 344 344 345 346 346 346 346 346 346 343 339 339 340 341 342 342 336 328 329 329 329 330 334 333 337 336
347 348 348 348 347 347 347 347 346 344 345 347 346 345 340 343 337 337 338 341 343 339 337 340 341 344 346 347 346 347 346 346 345 345 345 345 346 346 346 346 346 345 344 344 341 338 337 336 335 339 339 334 330 330 330 330 331 332 333 333 338 339
347 347 347 346 347 347 347 346 346 346 343 342 340 342 340 339 338 339 340 342 342 342 341 338 345 349 350 343 344 346 346 347 347 346 347 345 343 342 344 343 342 342 341 339 337 337 337 337 337 336 335 334 334 333 332 332 332 333 335 336 337 340
347 347 346 346 346 346 347 347 346 346 344 341 340 340 340 339 338 338 339 342 342 343 341 340 339 340 340 339 341 341 340 340 340 339 343 340 339 338 338 337 337 338 336 337 337 337 337 337 338 337 336 336 335 335 334 334 335 335 336 336 337 340
346 346 346 346 346 346 346 345 345 345 344 342 341 340 340 341 341 341 339 343 344 342 340 339 338 336 338 337 337 339 339 338 338 338 340 339 338 338 338 337 337 336 337 337 337 337 337 338 336 336 336 336 336 335 335 336 336 336 337 337 337 342
345 345 346 346 346 345 345 346 345 344 343 342 342 341 341 341 342 342 340 343 342 340 338 337 337 335 335 336 337 336 336 336 336 336 338 339 338 337 336 336 336 336 335 336 337 337 337 337 336 335 336 336 336 336 336 335 335 335 336 336 337 340
344 344 345 346 345 345 345 345 345 344 343 342 342 341 341 341 341 342 343 342 344 338 337 337 336 335 335 334 336 336 334 333 334 335 337 338 337 337 335 334 334 334 335 335 335 336 336 336 336 335 335 336 336 335 335 335 335 334 334 334 334 336
344 344 344 345 344 344 344 344 344 344 342 344 342 341 341 341 340 340 341 342 343 339 336 335 334 334 334 335 335 336 336 335 335 336 337 336 336 335 335 334 333 333 333 333 333 333 336 335 334 334 334 334 334 333 333 333 333 333 334 335 334 335
343 343 343 344 343 343 343 342 343 343 342 343 341 341 342 340 337 334 334 336 337 339 336 335 334 336 335 336 336 337 337 335 335 334 333 334 335 334 333 333 334 333 333 332 332 333 334 332 332 333 332 333 332 332 332 332 332 333 333 333 334 335
342 343 342 342 342 342 342 341 342 343 342 342 341 340 337 335 333 332 332 332 335 338 337 335 335 334 334 335 335 334 333 332 334 335 335 333 334 335 333 333 333 333 332 331 331 331 331 331 330 330 331 331 331 331 331 331 332 332 332 333 333 334
341 341 341 341 341 340 340 340 341 341 340 340 339 336 335 334 336 329 333 334 337 340 341 337 337 335 335 336 334 333 332 334 334 334 334 333 333 333 333 332 332 332 331 330 329 330 331 329 329 329 330 330 330 330 330 331 331 331 332 332 332 333
339 340 339 339 340 340 339 339 339 338 337 337 337 335 333 331 330 333 335 333 334 336 338 336 335 335 336 332 331 332 335 336 335 333 332 332 332 331 330 330 331 330 331 329 328 328 329 329 328 329 329 329 330 329 330 330 331 331 331 331 331 332
337 338 337 336 336 336 336 336 337 336 337 335 333 333 334 332 335 334 333 333 334 337 336 337 335 333 332 334 334 335 335 334 333 332 331 331 330 329 328 328 329 327 330 327 326 326 327 327 328 328 329 329 329 329 329 329 330 330 330 330 330 330
337 334 337 334 335 335 335 336 334 334 334 334 333 333 332 332 332 332 332 333 335 338 337 337 336 334 333 333 333 332 332 333 333 333 331 330 329 328 327 326 328 327 325 326 325 327 327 325 326 327 328 328 328 328 328 328 329 329 328 328 329 328
334 333 334 334 334 335 335 333 333 337 333 333 333 332 331 331 331 331 333 333 336 338 335 336 336 334 332 332 331 331 332 333 333 331 328 328 329 327 326 325 326 325 325 325 325 325 326 325 325 326 327 327 327 329 327 327 328 328 328 328 327 327
332 332 333 333 333 333 333 332 332 333 332 332 332 331 331 331 331 331 331 333 335 337 335 335 334 333 331 330 330 330 331 330 330 328 327 326 326 326 325 325 325 327 324 323 323 324 325 325 325 326 326 326 326 327 326 327 328 327 327 326 326 326
332 333 333 333 333 332 332 332 332 332 334 332 332 332 332 331 331 331 332 332 334 336 336 334 333 332 330 331 329 328 328 328 327 326 325 325 325 324 323 323 324 324 325 323 324 324 323 324 325 325 325 325 325 325 326 327 327 328 326 325 326 324
332 332 332 332 333 333 332 331 331 331 331 331 332 331 331 330 331 331 331 332 334 335 334 332 332 332 329 329 329 329 327 326 326 325 325 324 324 325 325 322 323 323 324 324 325 324 323 323 324 323 323 324 324 325 325 326 326 326 325 325 325 325
332 332 332 332 332 332 331 331 330 331 330 330 331 332 331 330 330 331 332 333 333 333 332 331 330 329 329 328 327 326 326 326 326 325 325 324 324 323 323 322 323 325 322 323 324 324 323 322 322 320 322 322 323 324 325 324 325 324 325 324 323 324
332 333 332 331 331 330 329 329 330 330 329 329 330 331 330 329 330 331 332 333 332 332 331 331 330 330 329 331 326 326 326 325 326 326 325 323 322 324 325 324 323 323 323 321 321 323 322 322 319 319 320 319 319 321 324 323 323 323 323 323 323 323
332 332 332 332 332 331 331 331 329 328 329 330 330 328 327 328 330 332 332 331 330 329 329 329 330 328 327 326 326 325 325 324 325 325 325 326 326 327 323 323 321 321 322 321 320 321 321 320 318 316 315 316 316 318 320 320 321 322 322 323 322 322
332 332 332 333 332 331 329 330 329 328 330 328 329 329 329 331 332 329 329 329 329 328 328 328 328 328 326 326 325 325 323 323 323 326 323 322 322 323 322 322 321 320 320 320 320 321 320 320 316 317 316 316 314 313 315 316 318 320 320 321 321 321
332 332 332 334 333 332 331 329 330 330 328 328 328 331 329 328 328 327 326 327 327 327 327 327 327 327 326 325 325 324 323 323 322 323 322 322 322 322 322 322 321 322 318 316 316 317 320 319 318 317 313 313 315 312 307 311 314 316 317 320 319 319
332 333 333 334 333 332 331 329 329 329 330 329 329 327 326 325 326 328 326 325 325 327 327 327 326 326 327 324 323 323 323 322 322 322 323 322 321 321 321 321 320 320 318 315 315 315 317 319 317 319 318 314 311 309 308 312 312 312 315 318 318 319
332 333 333 333 333 332 330 328 327 327 326 326 324 323 323 323 324 323 323 324 326 326 327 326 326 326 326 325 323 322 322 322 322 323 322 321 320 320 320 319 319 319 318 318 315 314 314 318 318 318 317 317 315 311 310 312 311 308 316 315 316 318
332 332 333 333 333 331 329 329 328 327 327 326 325 323 325 325 324 323 324 324 324 325 325 325 324 324 324 324 323 322 322 322 322 323 323 320 319 319 319 319 319 318 317 317 316 313 312 313 314 316 316 315 317 317 318 313 308 311 307 313 315 315
332 332 332 332 332 331 329 328 327 327 327 326 326 325 325 324 324 325 324 324 324 323 324 324 323 323 323 324 322 321 322 322 322 323 323 319 318 318 318 318 318 317 317 316 315 313 311 312 311 311 315 313 314 315 314 314 313 311 310 307 309 315
332 332 332 332 331 330 330 328 328 327 326 326 326 325 326 327 324 324 323 322 322 322 322 322 322 322 322 323 324 321 321 321 321 321 322 319 318 317 316 315 314 314 313 313 314 313 311 310 310 309 310 310 311 311 312 312 311 312 311 307 307 309
331 332 331 331 331 329 329 328 327 327 326 326 326 324 324 323 322 322 321 321 321 321 320 320 320 320 320 320 320 321 321 321 320 321 320 317 316 315 314 313 313 313 312 311 311 312 310 309 308 308 307 307 306 307 308 308 308 307 311 311 306 307
332 332 331 330 329 327 328 328 327 326 326 325 324 323 322 322 321 321 320 319 319 319 319 319 320 319 319 320 321 323 321 320 321 321 318 316 315 314 313 312 311 311 310 310 309 309 308 308 307 306 305 305 304 304 304 304 304 305 307 307 307 307
332 331 330 328 327 327 327 327 328 328 327 326 324 323 322 321 321 320 319 319 318 318 318 318 317 318 318 318 320 319 320 319 318 317 316 315 314 313 312 311 310 310 309 308 309 308 307 306 305 304 304 304 304 304 304 304 305 305 306 306 306 305
330 331 329 328 327 326 326 327 328 328 328 327 325 324 323 322 321 320 319 318 318 317 317 317 317 317 316 317 318 317 317 317 316 316 315 314 313 312 311 310 309 308 308 307 307 306 305 305 305 304 303 303 303 303 303 304 305 305 305 306 305 303
331 331 329 326 326 326 325 327 328 328 328 327 325 324 323 322 321 320 320 319 318 317 317 316 316 316 316 318 318 318 317 316 316 316 315 314 313 312 311 309 309 308 307 307 307 305 304 304 304 303 304 302 302 302 303 303 304 304 304 303 302 302
330 330 328 327 326 325 325 326 327 328 328 327 325 324 323 323 321 320 319 318 317 317 317 315 316 316 318 316 316 316 316 316 315 314 314 312 312 311 310 310 309 308 308 306 306 306 304 303 302 302 302 302 302 302 302 303 303 303 304 303 302 302
329 329 328 327 326 326 325 325 327 327 327 326 325 324 323 322 320 320 319 318 317 317 316 316 316 317 317 317 316 315 315 314 314 313 312 311 310 309 309 308 307 307 306 308 304 304 304 303 302 302 302 302 301 301 302 303 303 303 303 303 302 301
329 328 327 326 325 325 324 324 326 327 326 325 323 323 322 320 319 319 319 319 318 317 317 317 317 317 315 315 314 314 313 313 312 312 311 310 309 308 308 307 306 306 305 306 306 303 303 303 302 302 302 301 301 301 301 303 303 303 303 302 301 301
Wind_Speed
8 8 8 7 6 7 9 13 11 13 13 12 10 9 8 8 6 5 4 5 4 3 3 3 3 2 2 1 1 1 1 2 1 1 1 2 3 4 5 6 7 8 8 9 9 11 10 10 11 11 11 11 11 6 5 3 3 4 4 4 4 4
7 8 7 6 5 5 6 8 6 6 6 7 8 7 5 3 5 1 4 3 3 2 2 2 2 2 1 0 1 0 0 0 1 1 2 3 4 5 6 7 7 8 8 8 9 6 5 7 9 9 9 10 6 5 5 5 4 4 4 4 4 5
6 7 7 6 5 5 6 5 5 5 5 7 5 4 3 3 3 3 3 3 2 2 2 2 1 1 2 2 1 1 2 2 1 2 2 3 5 6 7 8 8 7 8 8 5 4 4 5 5 7 7 5 4 5 6 6 5 4 5 4 4 6
6 7 7 5 5 5 6 5 5 5 5 4 4 4 4 4 3 3 3 2 2 1 1 2 2 5 6 4 3 4 5 5 5 4 4 3 4 4 6 6 7 6 5 3 4 4 4 5 5 5 5 4 4 5 5 5 5 5 5 5 4 7
6 6 6 6 6 5 6 5 5 5 4 4 4 4 3 2 2 2 2 2 1 1 1 2 1 2 3 3 3 2 2 3 3 3 5 4 3 4 3 4 4 4 4 4 5 5 5 5 5 5 5 5 5 5 5 5 5 5 5 5 5 8
6 7 6 6 5 7 7 6 6 5 5 3 4 4 3 2 2 1 1 1 1 1 2 2 2 3 2 2 2 1 1 1 2 2 3 3 3 3 3 3 4 4 4 4 3 4 4 4 5 5 5 5 5 5 5 5 5 5 5 5 7 11
6 7 7 6 5 5 5 5 5 5 6 5 4 3 3 3 2 1 1 1 0 2 2 2 3 3 4 1 2 1 1 0 1 1 2 2 3 3 3 3 4 4 4 4 4 4 4 4 4 4 5 5 5 4 4 4 4 5 5 5 5 10
6 7 6 6 6 6 6 6 6 7 5 6 5 4 3 3 2 2 2 1 1 1 2 3 3 4 3 1 2 1 0 0 1 2 2 2 2 3 2 2 3 4 4 3 4 4 4 4 4 3 4 5 5 4 5 5 4 4 4 5 5 7
6 8 5 6 6 5 6 6 5 5 5 6 4 4 4 3 2 2 1 1 1 2 2 3 4 3 2 1 1 2 2 1 0 1 0 1 1 2 3 3 3 3 3 4 4 4 5 5 5 4 4 5 5 5 6 5 5 5 5 5 5 6
8 8 6 6 5 4 5 7 6 5 5 5 4 4 3 3 2 2 1 1 1 2 3 3 3 1 1 1 3 3 3 2 2 3 3 3 1 2 2 3 3 4 4 4 4 4 4 5 5 4 4 5 5 5 4 5 5 5 5 4 4 4
8 9 6 6 6 5 6 8 8 5 5 5 4 4 3 3 2 2 1 0 2 2 1 0 1 1 2 3 3 4 3 2 5 4 2 3 2 3 2 2 3 3 4 4 4 3 3 4 4 4 4 4 5 4 5 5 5 5 5 5 6 6
9 8 8 7 7 6 7 7 7 5 5 4 4 4 4 3 2 1 2 2 2 2 2 0 2 3 3 2 4 4 4 5 3 4 4 3 4 4 3 3 4 4 3 3 4 4 4 4 5 4 5 5 5 5 5 5 5 5 6 6 6 6
11 9 10 9 7 7 6 5 5 5 4 4 4 4 4 3 3 2 3 4 4 2 3 3 2 3 3 3 4 5 5 4 4 4 4 4 5 5 5 5 6 5 5 5 6 6 6 5 5 6 5 5 5 5 4 4 5 5 6 5 6 5
10 9 9 7 6 6 6 5 5 4 4 4 4 4 3 3 3 3 4 4 3 2 3 3 4 4 3 4 5 5 5 5 4 4 4 4 5 5 5 5 5 5 5 5 5 5 5 6 5 4 5 5 4 4 4 5 5 5 5 5 5 5
8 8 9 7 7 6 5 5 4 4 4 4 4 4 4 3 4 3 4 4 2 3 4 4 4 5 4 4 5 4 5 4 4 4 5 4 5 5 5 5 5 5 5 5 5 4 5 5 5 6 5 4 4 4 4 4 4 4 5 5 5 5
7 7 7 7 6 6 5 4 4 4 4 4 5 5 4 4 4 3 3 4 3 4 5 5 5 5 5 4 5 5 4 4 5 4 4 5 5 5 4 4 4 4 5 5 6 6 5 5 4 5 4 4 3 3 4 3 4 4 5 4 5 6
8 8 7 7 6 5 5 4 4 4 4 4 5 5 5 5 5 4 3 4 3 4 5 6 6 5 5 4 5 5 4 4 5 5 5 5 6 4 4 4 4 4 4 3 5 6 6 5 5 4 4 3 3 3 4 4 4 4 5 7 6 7
6 6 6 6 6 6 5 4 4 4 4 5 5 5 5 5 5 4 4 4 3 5 6 7 6 6 5 4 4 5 4 5 5 5 5 5 5 4 4 4 4 4 4 4 5 6 6 6 4 4 4 3 3 3 4 5 4 4 6 7 6 10
7 7 6 5 6 7 6 4 4 5 5 6 5 5 5 5 4 4 5 4 4 5 6 7 6 6 6 4 5 4 5 5 4 5 5 5 5 5 4 4 5 5 4 4 4 5 6 6 5 4 3 3 2 4 5 5 5 5 6 7 8 8
6 6 6 5 6 6 5 6 6 5 5 5 5 5 4 4 4 5 5 5 5 6 6 6 6 6 6 5 5 5 5 5 4 5 6 6 5 5 5 5 5 4 5 4 4 5 5 5 4 2 4 3 2 3 5 6 6 6 5 7 7 7
6 7 7 6 5 6 6 6 5 6 6 5 6 5 5 4 4 4 5 5 6 6 6 7 6 6 6 5 5 5 5 5 4 5 5 5 4 4 4 3 3 3 4 5 6 7 7 3 4 5 4 5 4 3 3 5 7 7 6 6 5 7
6 7 7 7 6 6 4 5 5 5 6 6 5 6 5 4 5 5 5 5 6 6 6 6 5 6 5 6 6 5 5 5 4 5 5 4 3 4 5 5 3 2 3 4 5 7 7 4 5 3 3 5 4 4 3 4 7 7 6 6 6 5
6 7 7 7 7 5 3 4 5 5 7 5 3 3 5 4 5 6 5 5 5 6 6 5 5 5 6 6 6 6 5 4 4 3 5 5 5 6 5 5 5 2 1 2 2 4 7 7 2 3 0 2 3 5 4 4 2 6 6 5 5 6
7 7 7 6 6 5 5 5 5 7 5 5 5 5 6 6 6 7 7 5 5 5 5 6 5 6 6 6 6 6 5 5 5 3 5 6 6 5 5 5 5 5 1 3 3 5 6 7 6 4 3 2 3 2 4 5 7 4 4 4 6 5
7 7 7 7 7 8 8 8 7 8 8 9 6 6 7 6 5 6 6 6 5 4 5 6 5 5 6 6 6 5 6 5 5 4 4 6 5 5 5 5 4 5 5 1 3 3 5 6 8 6 1 1 2 2 1 4 6 4 3 5 8 5
7 7 8 8 8 8 8 9 8 8 7 6 6 6 7 8 6 6 5 4 5 4 5 5 5 5 6 6 6 5 5 6 5 5 5 5 5 5 6 6 6 4 5 5 2 5 5 5 5 6 6 3 1 1 1 2 2 4 4 2 6 6
8 7 7 8 8 7 7 7 8 8 8 8 8 2 3 4 6 5 5 6 5 4 4 6 5 5 5 5 5 5 5 6 5 5 4 5 6 6 6 5 5 6 5 4 5 6 6 4 4 4 5 5 6 4 2 3 2 3 4 3 5 7
7 8 7 8 7 7 8 6 6 7 7 8 8 7 6 6 5 5 7 6 5 5 4 4 5 5 4 5 5 5 5 6 6 5 5 6 6 5 6 6 6 5 5 5 6 5 5 6 3 4 4 6 5 3 3 4 3 2 2 6 5 1
8 8 8 8 8 5 6 8 8 7 6 4 6 6 6 5 6 5 8 5 5 5 5 4 4 5 4 5 4 5 5 6 6 5 5 6 6 6 8 7 7 6 7 6 6 4 5 6 6 5 4 5 4 4 3 3 6 5 4 5 3 7
9 7 8 8 7 7 6 7 8 8 10 8 7 5 6 7 6 5 7 6 5 5 4 5 4 4 5 5 5 5 6 6 6 6 5 7 7 8 7 7 6 6 6 8 5 5 5 4 4 4 5 4 5 4 4 4 5 7 3 4 5 8
9 7 8 8 8 8 7 7 8 9 12 12 6 5 8 7 6 6 7 5 5 4 4 4 4 4 5 5 5 5 6 6 5 6 6 7 7 6 6 6 6 8 8 7 5 5 6 5 4 6 7 6 7 6 5 5 6 5 4 4 5 5
8 8 7 7 8 8 8 8 9 10 11 12 13 8 8 9 8 8 7 7 5 5 4 4 4 5 5 5 5 6 6 6 6 7 7 6 6 6 5 6 6 6 6 6 5 5 5 6 7 5 6 5 5 4 4 5 3 3 4 3 4 4
9 8 8 8 8 8 7 8 9 10 9 9 10 9 5 7 6 8 7 7 6 6 5 5 4 5 4 5 5 6 6 6 6 6 7 7 7 7 6 7 7 7 6 7 6 6 6 6 6 6 5 4 4 5 5 3 3 2 3 2 5 6
9 9 8 8 8 8 8 8 8 8 8 8 8 9 7 8 6 6 7 7 7 6 6 6 5 4 4 4 5 5 6 7 7 7 7 7 7 7 7 7 7 7 8 6 6 7 6 6 6 6 4 5 5 5 5 4 4 4 5 5 6 6
9 8 8 8 8 8 7 7 8 9 9 8 8 7 7 6 7 7 5 6 5 5 6 5 5 4 4 6 6 6 7 7 7 7 7 7 6 7 7 7 6 6 6 6 6 5 6 7 6 7 7 6 5 5 5 5 4 5 4 5 5 5
10 9 8 9 8 8 8 8 8 8 8 8 7 7 6 5 5 6 7 6 6 5 5 6 4 4 4 6 7 7 7 7 7 7 7 7 7 6 7 8 6 7 7 4 6 8 6 6 7 8 7 5 6 6 5 4 5 5 5 5 5 6
9 9 9 9 8 7 7 9 8 9 8 8 9 9 9 8 7 6 6 6 6 5 6 5 5 4 5 6 7 7 8 7 7 7 7 7 8 8 7 7 6 7 7 5 6 7 6 7 6 6 6 8 6 5 5 4 5 6 5 6 6 6
Wind_Direction
156 152 146 141 136 136 150 145 143 141 140 141 142 143 145 143 138 139 123 125 82 77 81 54 44 51 65 95 126 106 90 104 86 25 333 323 316 318 319 318 315 316 317 313 312 313 315 313 313 314 315 316 322 327 318 311 284 275 259 244 259 249
149 147 145 140 135 140 146 140 130 131 129 139 143 143 133 136 136 70 118 100 88 78 81 67 65 37 28 12 6 332 275 214 239 307 311 311 316 314 313 314 316 315 314 312 311 311 309 307 303 302 304 313 323 314 313 316 312 296 284 272 259 251
151 149 145 140 138 143 132 126 125 122 127 139 143 126 113 118 88 120 106 106 106 68 77 67 347 242 225 222 236 287 330 326 288 280 287 308 311 319 323 324 323 321 317 317 321 305 299 298 300 305 311 316 306 308 309 313 310 296 288 286 279 267
156 150 148 148 144 139 133 126 121 120 118 118 107 114 118 116 125 130 123 110 91 109 70 50 344 345 353 17 14 358 343 343 344 350 346 357 340 330 328 320 313 313 320 324 317 316 315 308 307 314 314 313 315 314 314 310 306 305 296 292 285 283
152 149 150 152 149 139 132 127 127 128 125 110 113 123 135 121 129 118 121 107 97 57 40 33 360 335 340 356 357 353 346 342 344 335 353 338 345 331 336 326 332 335 339 330 331 321 328 323 321 325 325 322 318 320 317 311 309 307 308 306 294 292
158 158 156 160 154 147 139 140 138 136 134 109 124 137 135 147 131 135 120 121 344 8 343 328 326 305 317 316 319 278 6 335 337 326 338 322 324 325 325 328 331 328 324 324 313 307 311 305 308 313 312 315 316 316 316 315 316 315 312 318 312 312
174 159 156 155 149 148 141 140 140 141 150 157 148 151 171 173 179 169 108 201 23 335 324 326 310 289 274 229 264 241 190 212 267 287 284 285 317 319 315 327 326 316 312 317 317 316 310 306 297 299 305 307 313 307 311 310 312 308 307 305 302 303
180 159 154 150 157 151 146 148 151 154 154 168 164 180 197 192 189 200 216 197 279 144 286 307 298 276 267 202 240 224 102 84 206 219 229 211 275 333 334 306 314 312 323 335 338 327 327 318 319 309 305 310 315 322 323 319 313 308 307 303 306 311
176 160 152 151 168 152 149 151 144 158 144 181 172 185 187 181 172 183 190 144 263 290 287 281 281 268 222 199 334 48 70 105 187 250 54 34 132 321 348 1 319 318 338 352 350 345 339 333 330 327 330 321 333 335 334 330 327 324 323 324 321 319
174 166 156 158 168 141 142 152 159 168 170 177 167 178 159 153 169 150 157 178 238 242 259 272 288 301 118 52 61 53 59 23 3 16 48 23 62 104 21 354 1 11 7 358 355 341 343 326 327 331 335 333 329 328 318 319 327 329 324 323 319 314
175 172 155 161 162 145 143 166 175 181 169 182 146 144 139 142 133 163 176 176 245 243 287 317 269 164 72 81 78 82 70 61 47 23 39 24 14 58 99 83 42 7 8 359 349 327 346 334 326 328 341 331 331 330 338 338 333 341 350 348 350 346
173 175 165 159 163 153 161 171 178 173 177 158 138 133 137 143 159 153 111 117 120 125 123 133 219 106 74 74 88 70 52 62 47 23 30 47 49 41 50 32 37 27 26 30 355 360 351 349 333 335 340 345 344 347 350 347 352 354 357 1 357 355
172 179 170 168 167 162 168 174 176 181 157 147 140 130 137 152 134 135 119 120 90 128 164 170 90 58 63 77 85 86 85 89 69 54 40 44 46 28 32 22 16 6 20 13 11 355 345 344 341 342 340 344 347 347 351 354 357 358 6 359 1 358
172 169 170 167 159 158 170 174 175 161 147 142 141 128 131 140 140 123 125 113 131 188 108 97 106 87 98 91 98 104 109 82 74 63 57 41 48 35 36 33 8 15 13 19 2 339 344 338 335 335 345 341 343 342 347 355 2 355 350 6 355 8
173 162 169 167 162 164 166 168 154 151 155 150 134 127 128 115 105 130 124 114 126 100 86 91 94 103 77 97 89 85 78 82 78 66 64 43 63 46 45 36 17 19 356 9 355 332 340 323 328 332 331 339 333 339 354 358 349 359 6 358 12 19
164 166 170 169 164 162 160 153 155 160 151 137 126 120 116 113 116 124 115 108 106 98 90 89 96 100 93 88 101 89 80 79 67 58 54 47 52 41 24 37 26 44 18 356 353 333 334 323 327 317 323 330 327 346 356 357 5 6 1 8 26 21
169 171 168 168 162 151 132 148 158 152 145 126 120 120 120 121 121 125 121 100 96 96 96 96 91 90 101 101 93 88 60 55 66 70 59 52 53 33 34 26 24 31 58 346 341 321 318 323 323 318 314 332 342 352 21 15 11 13 7 31 22 25
162 162 166 172 159 138 132 135 130 126 120 109 113 119 124 125 127 132 111 101 104 107 102 101 100 98 95 91 84 84 69 57 67 73 68 55 44 30 35 40 28 14 24 14 344 339 326 322 317 314 323 343 354 21 29 27 20 21 26 25 22 31
157 160 158 148 139 121 113 105 104 112 106 105 103 101 117 115 124 113 111 129 124 111 106 99 97 98 96 89 85 74 69 55 72 79 75 62 41 24 22 24 45 7 4 1 347 326 321 313 315 308 307 342 357 42 35 41 30 27 29 26 30 30
158 152 133 129 127 117 127 140 129 110 101 111 113 114 103 110 111 116 135 130 124 114 107 102 97 96 95 87 79 72 77 65 70 78 73 60 35 27 8 2 8 18 358 340 350 336 341 335 305 327 330 355 35 15 46 42 35 32 25 24 26 31
163 152 140 134 132 142 150 142 133 143 135 136 126 118 106 105 114 135 134 126 118 111 106 99 97 102 101 96 87 85 84 66 66 76 78 73 53 20 10 8 347 4 14 5 1 351 345 330 13 358 2 354 342 24 14 48 46 31 22 20 20 30
160 153 137 140 149 165 168 162 143 144 136 132 128 125 119 128 137 124 114 112 106 102 96 100 105 106 106 109 102 89 80 75 72 76 77 73 59 37 29 34 36 25 26 36 18 355 352 0 28 20 342 333 342 341 26 24 46 24 17 21 17 27
163 144 137 149 152 155 140 144 143 146 142 109 54 91 121 135 120 107 89 86 90 94 100 97 108 112 107 103 105 100 89 86 64 75 85 65 58 46 30 26 21 59 315 350 9 1 19 36 38 341 68 329 15 360 330 360 19 25 10 5 19 24
151 140 142 155 148 129 116 97 85 115 95 101 133 124 101 98 100 96 84 76 68 89 96 101 103 103 101 103 107 104 105 87 79 69 93 83 61 54 37 29 19 12 62 33 357 10 25 31 38 9 29 35 2 41 349 351 331 324 331 14 27 16
141 137 139 144 136 128 114 97 98 82 92 89 78 97 102 84 89 99 94 73 73 84 97 101 100 105 107 104 99 105 100 98 92 75 84 87 75 64 56 46 31 33 31 112 26 359 10 21 33 27 42 128 35 52 132 288 312 292 355 9 12 18
130 132 141 141 146 143 139 135 131 125 120 113 117 122 129 136 125 109 103 99 75 74 96 92 90 97 99 101 100 99 101 99 92 86 83 90 92 72 50 45 34 41 39 23 97 42 13 349 32 29 27 45 157 160 343 284 19 330 348 342 17 8
138 135 138 145 153 141 132 141 143 139 136 138 131 88 90 96 111 99 97 89 83 63 65 95 85 87 92 93 95 92 97 96 93 92 88 85 72 66 59 51 36 43 40 29 37 60 32 343 333 19 13 25 42 40 72 28 18 285 326 341 45 354
140 142 147 149 152 151 140 138 123 123 132 139 138 136 127 105 93 106 98 94 91 75 66 75 94 83 84 88 92 87 91 93 90 83 81 72 73 67 66 50 48 46 46 42 46 58 48 27 46 349 349 18 16 54 54 63 30 339 312 326 331 340
142 144 147 151 146 145 139 139 133 128 110 86 109 117 115 105 106 104 101 92 90 88 78 64 70 86 73 75 80 95 93 90 86 80 79 78 72 66 64 61 48 45 44 44 45 46 59 43 40 25 2 8 1 18 8 51 31 8 36 359 336 357
147 147 146 145 137 127 125 125 125 130 121 115 112 106 106 115 111 111 106 101 98 96 96 86 74 75 82 76 84 89 90 90 93 92 80 83 80 70 61 63 57 62 56 59 31 45 57 46 47 39 44 33 34 4 23 12 25 17 13 45 347 344
147 141 145 140 131 125 124 127 127 127 127 124 111 133 126 123 124 116 117 116 113 109 97 101 91 70 74 83 86 85 92 91 85 84 81 79 75 75 68 70 66 62 57 55 44 49 53 47 46 44 35 40 48 45 44 39 9 3 10 2 346 351
136 143 137 128 123 128 131 132 133 135 138 144 147 162 151 148 147 137 134 131 127 113 103 91 80 83 66 76 89 82 83 85 83 84 80 80 74 74 75 72 63 60 58 51 48 55 53 47 42 51 43 34 42 41 41 33 356 355 20 27 11 336
131 138 132 129 128 133 134 139 141 139 142 148 145 143 158 147 151 142 141 138 142 133 128 101 95 92 78 89 99 95 91 92 86 79 86 82 76 74 75 70 68 65 58 51 42 54 57 48 46 48 51 37 46 41 39 9 3 358 353 16 44 16
142 139 132 128 131 133 144 148 140 135 140 146 150 150 158 152 153 146 147 147 148 147 141 141 128 117 119 98 88 97 99 90 87 89 87 84 82 78 77 75 67 65 56 48 53 54 58 57 53 49 42 55 43 39 36 19 15 21 22 30 36 26
130 133 133 132 138 143 147 133 132 143 146 146 153 147 151 153 149 146 144 137 138 139 135 136 129 130 105 106 103 99 95 91 87 86 84 83 79 76 73 72 68 70 64 50 52 58 53 53 54 45 45 46 54 44 30 23 23 35 30 41 46 20
134 136 138 143 150 150 143 144 139 134 143 145 141 134 134 134 138 143 143 141 142 138 131 123 117 110 114 113 105 96 90 92 93 91 88 89 86 80 75 76 66 62 64 42 60 56 47 54 53 47 51 40 55 43 28 27 35 36 40 39 43 36
142 144 148 151 150 146 143 135 141 148 148 150 147 153 151 146 143 139 137 137 134 133 119 114 116 113 108 92 99 103 100 100 95 94 90 87 86 82 77 73 70 67 63 43 62 57 46 52 49 47 54 46 57 51 31 28 41 40 37 41 41 43